Skagway, AK

5:15 AM AKST on November 24, 2017 (GMT -0900)
Skagway

Weather History for PAGY - March, 2013

Change the Weather History Date:

Sunday, March 24, 2013

  Actual Average Record
Temperature  
Mean Temperature 32 °F -  
Max Temperature 37 °F 38 °F 52 °F (2016)
Min Temperature 28 °F 27 °F 8 °F (1967)
Degree Days  
Heating Degree Days 32    
Moisture  
Dew Point 30 °F    
Average Humidity 91    
Maximum Humidity 100    
Minimum Humidity 85    
Precipitation  
Precipitation 0.06 in - - ()
Sea Level Pressure  
Sea Level Pressure 30.07 in    
Wind  
Wind Speed 0 mph (ESE)    
Max Wind Speed 4 mph    
Max Gust Speed -    
Visibility 6 miles    
Events Snow    
Averages and records for this station are not official NWS values.
T = Trace of Precipitation, MM = Missing Value Source: NWS Daily Summary

Daily Weather History Graph

Daily Weather History Graph

Search for Another Location

Airport or City:

Trip Planner

Search our weather history database for the weather conditions in past years. The results will help you decide how hot, cold, wet, or windy it might be!

Date:

Astronomy

Mar. 24, 2013 Rise Set
Actual Time 6:49 AM AKDT 7:26 PM AKDT
Civil Twilight 6:08 AM AKDT 8:07 PM AKDT
Nautical Twilight 5:18 AM AKDT 8:58 PM AKDT
Astronomical Twilight 4:23 AM AKDT 9:53 PM AKDT
Moon 4:35 PM AKDT 5:37 AM AKDT
Length of Visible Light 13h 59m
Length of Day
12h 36m
Waxing Gibbous, 92% of the Moon is Illuminated
Mar 24
Waxing Gibbous
Mar 27
Full
Apr 2
Last Quarter
Apr 10
New
Apr 18
First Quarter

Hourly Weather History & Observations

Time (AKDT) Temp. Windchill Dew Point Humidity Pressure Visibility Wind Dir Wind Speed Gust Speed Precip Events Conditions
12:37 AM 30.2 °F - 28.4 °F 93% 30.17 in 6.0 mi Calm Calm - 0.00 in   Overcast
12:53 AM 30.9 °F - 28.9 °F 92% 30.17 in 7.0 mi Calm Calm - 0.00 in   Overcast
1:49 AM 30.2 °F - 28.4 °F 93% 30.16 in 2.5 mi Calm Calm - 0.00 in Snow Light Snow
1:53 AM 30.0 °F - 28.0 °F 92% 30.16 in 2.5 mi Calm Calm - 0.00 in Snow Light Snow
2:38 AM 30.2 °F - 28.4 °F 93% 30.15 in 1.8 mi Calm Calm - 0.01 in Snow Light Snow
2:53 AM 30.0 °F - 28.0 °F 92% 30.15 in 1.2 mi Calm Calm - 0.02 in Snow Light Snow
3:25 AM 30.2 °F - 28.4 °F 93% 30.15 in 1.5 mi Calm Calm - 0.01 in Snow Light Snow
3:41 AM 30.2 °F - 28.4 °F 93% 30.14 in 2.0 mi Calm Calm - 0.01 in Snow Light Snow
3:53 AM 30.0 °F - 28.0 °F 92% 30.14 in 2.0 mi Calm Calm - 0.02 in Snow Light Snow
4:01 AM 30.2 °F - 28.4 °F 93% 30.14 in 1.8 mi Calm Calm - 0.00 in Snow Light Snow
4:35 AM 30.2 °F - 28.4 °F 93% 30.14 in 2.0 mi Calm Calm - 0.01 in Snow Light Snow
4:53 AM 30.0 °F - 28.0 °F 92% 30.14 in 2.5 mi Calm Calm - 0.01 in Snow Light Snow
5:03 AM 30.2 °F - 28.4 °F 93% 30.13 in 2.5 mi Calm Calm - 0.00 in Snow Light Snow
5:20 AM 30.2 °F - 28.4 °F 93% 30.13 in 3.0 mi Calm Calm - 0.00 in Snow Light Snow
5:53 AM 30.0 °F - 28.0 °F 92% 30.13 in 4.0 mi Calm Calm - 0.00 in Snow Light Snow
6:24 AM 30.2 °F - 28.4 °F 93% 30.13 in 6.0 mi Calm Calm - 0.00 in   Overcast
6:51 AM 28.4 °F - 28.4 °F 100% 30.13 in 8.0 mi Calm Calm - 0.00 in   Overcast
6:53 AM 28.9 °F - 28.0 °F 96% 30.13 in 9.0 mi Calm Calm - 0.00 in   Overcast
7:53 AM 30.0 °F - 28.0 °F 92% 30.11 in 9.0 mi Calm Calm - 0.00 in   Overcast
8:53 AM 30.9 °F - 30.0 °F 96% 30.11 in 10.0 mi Calm Calm - N/A   Overcast
9:53 AM 32.0 °F - 28.9 °F 88% 30.10 in 10.0 mi Calm Calm - N/A   Overcast
10:53 AM 32.0 °F - 30.0 °F 92% 30.09 in 9.0 mi Calm Calm - 0.00 in   Overcast
11:33 AM 33.8 °F - 30.2 °F 87% 30.08 in 2.5 mi Calm Calm - 0.00 in Snow Light Snow
11:41 AM 33.8 °F - 30.2 °F 87% 30.08 in 6.0 mi Calm Calm - 0.00 in Snow Light Snow
11:53 AM 33.1 °F - 30.0 °F 89% 30.08 in 10.0 mi Calm Calm - 0.00 in   Overcast
12:53 PM 33.1 °F - 30.9 °F 92% 30.07 in 8.0 mi Calm Calm - 0.00 in Snow Light Snow
1:53 PM 34.0 °F - 30.9 °F 89% 30.05 in 10.0 mi Calm Calm - N/A   Overcast
2:53 PM 34.0 °F 31.0 °F 32.0 °F 92% 30.03 in 10.0 mi South 3.5 mph - N/A   Overcast
3:53 PM 35.1 °F 32.2 °F 30.9 °F 85% 30.00 in 10.0 mi SW 3.5 mph - N/A   Overcast
4:53 PM 36.0 °F - 32.0 °F 86% 29.98 in 10.0 mi Calm Calm - N/A   Overcast
5:53 PM 37.0 °F - 33.1 °F 86% 29.96 in 10.0 mi Calm Calm - N/A   Overcast
6:53 PM 35.1 °F - 30.9 °F 85% 29.95 in 10.0 mi Calm Calm - N/A   Overcast
7:53 PM 35.1 °F - 32.0 °F 89% 29.93 in 10.0 mi Calm Calm - 0.01 in   Overcast
8:53 PM 34.0 °F - 32.0 °F 92% 29.92 in 9.0 mi Calm Calm - N/A   Overcast
9:53 PM 33.1 °F 30.0 °F 30.9 °F 92% 29.91 in 10.0 mi NE 3.5 mph - N/A   Overcast
10:53 PM 33.1 °F 30.0 °F 30.9 °F 92% 29.87 in 10.0 mi NE 3.5 mph - N/A   Overcast
11:53 PM 33.1 °F - 32.0 °F 96% 29.86 in 10.0 mi Calm Calm - N/A   Overcast